Date String (YYYY-MM-DD hh:mm:ss) UTC,Instrument flags,Ambient pressure (hPa),Sample flow (lpm),Bypass flow (lpm),Sample temperature (°C),Ambient temperature (°C),ASC tube jacket temperature (°C),LED temperature (°C),Box temperature (°C),Sample RH (%),Span deviation,Mass concentration (μg/m³),Mass concentration (μg/m³),Mass concentration (μg/m³)
DateTimeUTC,F1_M11,P_M11,Q1_M11,Q2_M11,T1_M11,T2_M11,T3_M11,T4_M11,T5_M11,U1_M11,ZSPAN_M11,X0_M11,X2_M11,X1_M11
2021-10-30 14:00:00,,0824.5,5.00,0.00,28.6,27.7,00.0,37.6,30.4,09.1,0000.0,0001.35,0000.68,0000.48
2021-10-30 14:01:00,,0824.5,5.00,0.00,28.7,27.8,00.0,37.7,30.4,09.1,0000.0,0001.27,0000.68,0000.47
2021-10-30 14:02:00,,0824.6,4.99,0.00,28.7,27.8,00.0,37.7,30.5,09.0,0000.0,0001.19,0000.68,0000.47
2021-10-30 14:03:00,,0824.7,5.00,0.00,28.7,27.8,00.0,37.7,30.4,09.1,0000.0,0001.20,0000.70,0000.48
2021-10-30 14:04:00,,0824.5,5.01,0.00,28.7,27.8,00.0,37.7,30.4,09.0,0000.0,0001.23,0000.72,0000.48
2021-10-30 14:05:00,,0824.6,4.99,0.00,28.7,27.8,00.0,37.7,30.5,09.0,0000.0,0001.28,0000.74,0000.48
2021-10-30 14:06:00,,0824.6,5.00,0.00,28.7,27.9,00.0,37.7,30.5,09.0,0000.0,0001.31,0000.74,0000.47
2021-10-30 14:07:00,,0824.6,5.00,0.00,28.7,27.9,00.0,37.7,30.5,09.0,0000.0,0001.20,0000.71,0000.47
2021-10-30 14:08:00,,0824.6,5.00,0.00,28.7,27.8,00.0,37.7,30.4,09.0,0000.0,0001.17,0000.70,0000.47
2021-10-30 14:09:00,,0824.6,4.99,0.00,28.7,27.9,00.0,37.7,30.5,09.0,0000.0,0001.17,0000.72,0000.47
2021-10-30 14:10:00,,0824.6,5.01,0.00,28.7,27.9,00.0,37.7,30.5,09.0,0000.0,0001.09,0000.69,0000.47
2021-10-30 14:11:00,,0824.6,4.99,0.00,28.7,27.9,00.0,37.7,30.5,09.0,0000.0,0001.03,0000.67,0000.47
2021-10-30 14:12:00,,0824.6,5.00,0.00,28.8,27.9,00.0,37.7,30.5,09.0,0000.0,0001.00,0000.67,0000.47
2021-10-30 14:13:00,,0824.7,5.00,0.00,28.8,27.9,00.0,37.7,30.5,09.0,0000.0,0000.93,0000.63,0000.47
2021-10-30 14:14:00,,0824.6,5.00,0.00,28.8,27.9,00.0,37.7,30.6,08.9,0000.0,0000.91,0000.61,0000.47
2021-10-30 14:15:00,,0824.6,5.01,0.00,28.8,28.0,00.0,37.7,30.6,08.9,0000.0,0001.14,0000.61,0000.47
2021-10-30 14:16:00,,0824.7,5.00,0.00,28.8,28.0,00.0,37.8,30.6,08.9,0000.0,0001.45,0000.65,0000.47
2021-10-30 14:17:00,,0824.7,5.00,0.00,28.8,28.0,00.0,37.8,30.6,08.9,0000.0,0001.47,0000.66,0000.47
2021-10-30 14:18:00,,0824.7,5.00,0.00,28.8,28.0,00.0,37.8,30.7,08.9,0000.0,0001.48,0000.66,0000.47
2021-10-30 14:19:00,,0824.8,4.99,0.00,28.9,28.1,00.0,37.8,30.7,09.0,0000.0,0001.48,0000.66,0000.48
2021-10-30 14:20:00,,0824.8,5.00,0.00,28.9,28.1,00.0,37.8,30.7,08.9,0000.0,0001.46,0000.64,0000.47
2021-10-30 14:21:00,,0824.8,5.01,0.00,28.9,28.1,00.0,37.8,30.7,08.9,0000.0,0001.48,0000.65,0000.47
2021-10-30 14:22:00,,0824.8,4.99,0.00,28.9,28.1,00.0,37.8,30.7,09.2,0000.0,0001.48,0000.64,0000.47
2021-10-30 14:23:00,,0824.8,5.01,0.00,28.9,28.1,00.0,37.8,30.8,09.3,0000.0,0001.51,0000.66,0000.48
2021-10-30 14:24:00,,0824.8,5.00,0.00,28.9,28.1,00.0,37.9,30.8,09.2,0000.0,0001.63,0000.73,0000.49
2021-10-30 14:25:00,,0824.8,5.01,0.00,28.9,28.1,00.0,37.9,30.8,09.0,0000.0,0001.70,0000.78,0000.50
2021-10-30 14:26:00,,0824.9,5.00,0.00,28.9,28.1,00.0,37.9,30.7,09.1,0000.0,0001.58,0000.80,0000.50
2021-10-30 14:27:00,,0824.8,5.00,0.00,29.0,28.1,00.0,37.9,30.7,09.0,0000.0,0002.42,0000.77,0000.51
2021-10-30 14:28:00,,0824.8,5.01,0.00,29.0,28.1,00.0,37.9,30.8,09.1,0000.0,0002.63,0000.75,0000.51
2021-10-30 14:29:00,,0824.9,5.00,0.00,29.0,28.1,00.0,37.9,30.7,09.2,0000.0,0002.68,0000.75,0000.51
2021-10-30 14:30:00,,0824.9,4.99,0.00,29.0,28.2,00.0,37.9,30.7,09.0,0000.0,0002.72,0000.76,0000.50
2021-10-30 14:31:00,,0824.9,5.00,0.00,29.0,28.2,00.0,37.9,30.7,08.9,0000.0,0002.70,0000.75,0000.51
2021-10-30 14:32:00,,0824.9,5.01,0.00,29.0,28.2,00.0,37.9,30.8,09.0,0000.0,0002.69,0000.75,0000.51
2021-10-30 14:33:00,,0824.9,5.01,0.00,29.0,28.2,00.0,37.9,30.8,09.1,0000.0,0002.68,0000.74,0000.50
2021-10-30 14:34:00,,0824.9,4.99,0.00,29.0,28.2,00.0,38.0,30.8,09.1,0000.0,0002.65,0000.73,0000.50
2021-10-30 14:35:00,,0824.9,5.01,0.00,29.0,28.2,00.0,38.0,30.8,09.1,0000.0,0002.57,0000.69,0000.50
2021-10-30 14:36:00,,0824.9,5.00,0.00,29.1,28.3,00.0,38.0,30.9,09.1,0000.0,0002.46,0000.63,0000.49
2021-10-30 14:37:00,,0824.9,5.00,0.00,29.1,28.3,00.0,38.0,30.9,09.1,0000.0,0002.45,0000.61,0000.48
2021-10-30 14:38:00,,0824.9,5.00,0.00,29.1,28.3,00.0,38.0,30.9,09.1,0000.0,0001.50,0000.59,0000.47
2021-10-30 14:39:00,,0824.9,5.00,0.00,29.1,28.3,00.0,38.0,30.9,09.1,0000.0,0001.06,0000.61,0000.47
2021-10-30 14:40:00,,0824.9,5.00,0.00,29.1,28.3,00.0,38.0,30.9,09.0,0000.0,0001.02,0000.63,0000.48
2021-10-30 14:41:00,,0825.0,5.02,0.00,29.1,28.3,00.0,38.0,31.0,09.1,0000.0,0001.00,0000.62,0000.48
2021-10-30 14:42:00,,0824.9,5.00,0.00,29.1,28.3,00.0,38.1,30.9,09.1,0000.0,0001.05,0000.64,0000.48
2021-10-30 14:43:00,,0824.9,5.00,0.00,29.1,28.3,00.0,38.1,30.9,09.1,0000.0,0001.06,0000.64,0000.48
2021-10-30 14:44:00,,0824.9,5.01,0.00,29.1,28.3,00.0,38.1,30.9,09.0,0000.0,0001.14,0000.65,0000.48
2021-10-30 14:45:00,,0824.9,5.00,0.00,29.2,28.3,00.0,38.1,30.9,08.9,0000.0,0001.32,0000.70,0000.48
2021-10-30 14:46:00,,0825.0,5.00,0.00,29.2,28.4,00.0,38.1,31.0,08.9,0000.0,0001.43,0000.70,0000.47
2021-10-30 14:47:00,,0824.9,4.99,0.00,29.2,28.3,00.0,38.1,31.0,09.0,0000.0,0001.41,0000.69,0000.46
2021-10-30 14:48:00,,0825.0,5.01,0.00,29.2,28.3,00.0,38.1,31.0,09.1,0000.0,0001.38,0000.70,0000.47
2021-10-30 14:49:00,,0824.9,4.99,0.00,29.2,28.3,00.0,38.1,31.0,09.2,0000.0,0001.31,0000.70,0000.46
2021-10-30 14:50:00,,0824.9,5.01,0.00,29.2,28.3,00.0,38.2,30.9,09.3,0000.0,0001.24,0000.66,0000.46
2021-10-30 14:51:00,,0825.0,4.99,0.00,29.2,28.3,00.0,38.2,30.9,09.3,0000.0,0001.22,0000.66,0000.46
2021-10-30 14:52:00,,0825.1,5.01,0.00,29.2,28.3,00.0,38.2,30.9,09.4,0000.0,0001.35,0000.71,0000.48
2021-10-30 14:53:00,,0825.0,5.00,0.00,29.2,28.3,00.0,38.2,30.9,09.5,0000.0,0001.77,0000.69,0000.48
2021-10-30 14:54:00,,0825.1,4.99,0.00,29.2,28.3,00.0,38.2,30.9,09.6,0000.0,0003.00,0000.74,0000.48
2021-10-30 14:55:00,,0825.1,4.99,0.00,29.2,28.3,00.0,38.2,30.9,09.4,0000.0,0003.06,0000.76,0000.49
2021-10-30 14:56:00,,0825.1,5.00,0.00,29.2,28.3,00.0,38.2,30.9,09.4,0000.0,0003.01,0000.76,0000.49
2021-10-30 14:57:00,,0825.1,5.01,0.00,29.1,28.3,00.0,38.2,30.9,09.2,0000.0,0002.96,0000.77,0000.50
2021-10-30 14:58:00,,0825.1,5.00,0.00,29.2,28.3,00.0,38.2,30.9,09.1,0000.0,0003.62,0000.78,0000.50
2021-10-30 14:59:00,,0825.1,5.01,0.00,29.2,28.3,00.0,38.2,30.9,09.1,0000.0,0004.13,0000.80,0000.50
